Time,TemperatureF,DewpointF,PressureIn,WindDirection,WindDirectionDegrees,WindSpeedMPH,WindSpeedGustMPH,Humidity,HourlyPrecipIn,Conditions,Clouds,dailyrainin,SoftwareType,DateUTC
2013-06-13 00:00:00,82.0,-99.9,30.00,SSE,147,15.0,17.0,-999,-99.99,,,-99.99,,2013-06-13 05:00:00,
2013-06-13 00:33:00,82.0,-99.9,30.00,SSE,147,15.0,17.0,-999,-99.99,,,-99.99,,2013-06-13 05:33:00,
2013-06-13 00:43:00,82.0,-99.9,30.00,SSE,147,15.0,17.0,-999,-99.99,,,-99.99,,2013-06-13 05:43:00,
2013-06-13 00:53:00,82.0,-99.9,30.00,SSE,147,15.0,17.0,-999,-99.99,,,-99.99,,2013-06-13 05:53:00,
2013-06-13 01:00:00,82.0,-99.9,30.01,SSE,150,16.0,19.0,-999,-99.99,,,-99.99,,2013-06-13 06:00:00,
2013-06-13 01:33:00,82.0,-99.9,30.01,SSE,150,16.0,19.0,-999,-99.99,,,-99.99,,2013-06-13 06:33:00,
2013-06-13 01:44:00,82.0,-99.9,30.01,SSE,150,16.0,19.0,-999,-99.99,,,-99.99,,2013-06-13 06:44:00,
2013-06-13 01:53:00,82.0,-99.9,30.01,SSE,150,16.0,19.0,-999,-99.99,,,-99.99,,2013-06-13 06:53:00,
2013-06-13 02:00:00,82.0,-99.9,29.99,SSE,149,18.0,20.0,-999,-99.99,,,-99.99,,2013-06-13 07:00:00,
2013-06-13 02:33:00,82.0,-99.9,29.99,SSE,149,18.0,20.0,-999,-99.99,,,-99.99,,2013-06-13 07:33:00,
2013-06-13 02:42:00,82.0,-99.9,29.99,SSE,149,18.0,20.0,-999,-99.99,,,-99.99,,2013-06-13 07:42:00,
2013-06-13 02:52:00,82.0,-99.9,29.99,SSE,149,18.0,20.0,-999,-99.99,,,-99.99,,2013-06-13 07:52:00,
2013-06-13 03:00:00,82.0,-99.9,29.98,SSE,151,17.0,20.0,-999,-99.99,,,-99.99,,2013-06-13 08:00:00,
2013-06-13 03:32:00,82.0,-99.9,29.98,SSE,151,17.0,20.0,-999,-99.99,,,-99.99,,2013-06-13 08:32:00,
2013-06-13 03:43:00,82.0,-99.9,29.98,SSE,151,17.0,20.0,-999,-99.99,,,-99.99,,2013-06-13 08:43:00,
2013-06-13 03:52:00,82.0,-99.9,29.98,SSE,151,17.0,20.0,-999,-99.99,,,-99.99,,2013-06-13 08:52:00,
2013-06-13 04:00:00,82.0,-99.9,29.98,SSE,167,15.0,18.0,-999,-99.99,,,-99.99,,2013-06-13 09:00:00,
2013-06-13 04:32:00,82.0,-99.9,29.98,SSE,167,15.0,18.0,-999,-99.99,,,-99.99,,2013-06-13 09:32:00,
2013-06-13 04:42:00,82.0,-99.9,29.98,SSE,167,15.0,18.0,-999,-99.99,,,-99.99,,2013-06-13 09:42:00,
2013-06-13 04:52:00,82.0,-99.9,29.98,SSE,167,15.0,18.0,-999,-99.99,,,-99.99,,2013-06-13 09:52:00,
2013-06-13 05:00:00,82.0,-99.9,29.98,SSE,163,12.0,17.0,-999,-99.99,,,-99.99,,2013-06-13 10:00:00,
2013-06-13 05:33:00,82.0,-99.9,29.98,SSE,163,12.0,17.0,-999,-99.99,,,-99.99,,2013-06-13 10:33:00,
2013-06-13 05:43:00,82.0,-99.9,29.98,SSE,163,12.0,17.0,-999,-99.99,,,-99.99,,2013-06-13 10:43:00,
2013-06-13 05:53:00,82.0,-99.9,29.98,SSE,163,12.0,17.0,-999,-99.99,,,-99.99,,2013-06-13 10:53:00,
2013-06-13 06:00:00,82.0,-99.9,29.99,South,172,12.0,14.0,-999,-99.99,,,-99.99,,2013-06-13 11:00:00,
2013-06-13 06:24:00,82.0,-99.9,29.99,South,172,12.0,14.0,-999,-99.99,,,-99.99,,2013-06-13 11:24:00,
2013-06-13 06:32:00,82.0,-99.9,29.99,South,172,12.0,14.0,-999,-99.99,,,-99.99,,2013-06-13 11:32:00,
2013-06-13 06:43:00,82.0,-99.9,29.99,South,172,12.0,14.0,-999,-99.99,,,-99.99,,2013-06-13 11:43:00,
2013-06-13 06:52:00,82.0,-99.9,29.99,South,172,12.0,14.0,-999,-99.99,,,-99.99,,2013-06-13 11:52:00,
2013-06-13 07:00:00,82.0,-99.9,30.01,SSE,165,11.0,13.0,-999,-99.99,,,-99.99,,2013-06-13 12:00:00,
2013-06-13 07:35:00,82.0,-99.9,30.01,SSE,165,11.0,13.0,-999,-99.99,,,-99.99,,2013-06-13 12:35:00,
2013-06-13 07:43:00,82.0,-99.9,30.01,SSE,165,11.0,13.0,-999,-99.99,,,-99.99,,2013-06-13 12:43:00,
2013-06-13 07:52:00,82.0,-99.9,30.01,SSE,165,11.0,13.0,-999,-99.99,,,-99.99,,2013-06-13 12:52:00,
2013-06-13 08:00:00,82.0,-99.9,30.02,South,169,9.0,11.0,-999,-99.99,,,-99.99,,2013-06-13 13:00:00,
2013-06-13 08:33:00,82.0,-99.9,30.02,South,169,9.0,11.0,-999,-99.99,,,-99.99,,2013-06-13 13:33:00,
2013-06-13 08:43:00,82.0,-99.9,30.02,South,169,9.0,11.0,-999,-99.99,,,-99.99,,2013-06-13 13:43:00,
2013-06-13 08:53:00,82.0,-99.9,30.02,South,169,9.0,11.0,-999,-99.99,,,-99.99,,2013-06-13 13:53:00,
2013-06-13 09:00:00,84.0,-99.9,30.03,SSE,164,6.0,8.0,-999,-99.99,,,-99.99,,2013-06-13 14:00:00,
2013-06-13 09:33:00,84.0,-99.9,30.03,SSE,164,6.0,8.0,-999,-99.99,,,-99.99,,2013-06-13 14:33:00,
2013-06-13 09:43:00,84.0,-99.9,30.03,SSE,164,6.0,8.0,-999,-99.99,,,-99.99,,2013-06-13 14:43:00,
2013-06-13 09:53:00,84.0,-99.9,30.03,SSE,164,6.0,8.0,-999,-99.99,,,-99.99,,2013-06-13 14:53:00,
2013-06-13 10:00:00,83.0,-99.9,30.04,SE,145,8.0,9.0,-999,-99.99,,,-99.99,,2013-06-13 15:00:00,
2013-06-13 10:33:00,83.0,-99.9,30.04,SE,145,8.0,9.0,-999,-99.99,,,-99.99,,2013-06-13 15:33:00,
2013-06-13 10:43:00,83.0,-99.9,30.04,SE,145,8.0,9.0,-999,-99.99,,,-99.99,,2013-06-13 15:43:00,
2013-06-13 10:53:00,83.0,-99.9,30.04,SE,145,8.0,9.0,-999,-99.99,,,-99.99,,2013-06-13 15:53:00,
2013-06-13 11:00:00,83.0,-99.9,30.05,SE,139,10.0,12.0,-999,-99.99,,,-99.99,,2013-06-13 16:00:00,
2013-06-13 11:33:00,83.0,-99.9,30.05,SE,139,10.0,12.0,-999,-99.99,,,-99.99,,2013-06-13 16:33:00,
2013-06-13 11:43:00,83.0,-99.9,30.05,SE,139,10.0,12.0,-999,-99.99,,,-99.99,,2013-06-13 16:43:00,
2013-06-13 11:54:00,83.0,-99.9,30.05,SE,139,10.0,12.0,-999,-99.99,,,-99.99,,2013-06-13 16:54:00,
2013-06-13 12:00:00,83.0,-99.9,30.05,SE,133,10.0,12.0,-999,-99.99,,,-99.99,,2013-06-13 17:00:00,
2013-06-13 12:33:00,83.0,-99.9,30.05,SE,133,10.0,12.0,-999,-99.99,,,-99.99,,2013-06-13 17:33:00,
2013-06-13 12:43:00,83.0,-99.9,30.05,SE,133,10.0,12.0,-999,-99.99,,,-99.99,,2013-06-13 17:43:00,
2013-06-13 12:53:00,83.0,-99.9,30.05,SE,133,10.0,12.0,-999,-99.99,,,-99.99,,2013-06-13 17:53:00,
2013-06-13 13:00:00,83.0,-99.9,30.04,SE,131,11.0,13.0,-999,-99.99,,,-99.99,,2013-06-13 18:00:00,
2013-06-13 13:33:00,83.0,-99.9,30.04,SE,131,11.0,13.0,-999,-99.99,,,-99.99,,2013-06-13 18:33:00,
2013-06-13 13:43:00,83.0,-99.9,30.04,SE,131,11.0,13.0,-999,-99.99,,,-99.99,,2013-06-13 18:43:00,
2013-06-13 13:52:00,83.0,-99.9,30.04,SE,131,11.0,13.0,-999,-99.99,,,-99.99,,2013-06-13 18:52:00,
2013-06-13 14:00:00,83.0,-99.9,30.01,ESE,122,12.0,14.0,-999,-99.99,,,-99.99,,2013-06-13 19:00:00,
2013-06-13 14:33:00,83.0,-99.9,30.01,ESE,122,12.0,14.0,-999,-99.99,,,-99.99,,2013-06-13 19:33:00,
2013-06-13 14:43:00,83.0,-99.9,30.01,ESE,122,12.0,14.0,-999,-99.99,,,-99.99,,2013-06-13 19:43:00,
2013-06-13 14:53:00,83.0,-99.9,30.01,ESE,122,12.0,14.0,-999,-99.99,,,-99.99,,2013-06-13 19:53:00,
2013-06-13 15:00:00,83.0,-99.9,29.99,SE,125,13.0,15.0,-999,-99.99,,,-99.99,,2013-06-13 20:00:00,
2013-06-13 15:33:00,83.0,-99.9,29.99,SE,125,13.0,15.0,-999,-99.99,,,-99.99,,2013-06-13 20:33:00,
2013-06-13 15:44:00,83.0,-99.9,29.99,SE,125,13.0,15.0,-999,-99.99,,,-99.99,,2013-06-13 20:44:00,
2013-06-13 15:53:00,83.0,-99.9,29.99,SE,125,13.0,15.0,-999,-99.99,,,-99.99,,2013-06-13 20:53:00,
2013-06-13 16:00:00,83.0,-99.9,29.96,SE,141,12.0,14.0,-999,-99.99,,,-99.99,,2013-06-13 21:00:00,
2013-06-13 16:34:00,83.0,-99.9,29.96,SE,141,12.0,14.0,-999,-99.99,,,-99.99,,2013-06-13 21:34:00,
2013-06-13 16:43:00,83.0,-99.9,29.96,SE,141,12.0,14.0,-999,-99.99,,,-99.99,,2013-06-13 21:43:00,
2013-06-13 16:52:00,83.0,-99.9,29.96,SE,141,12.0,14.0,-999,-99.99,,,-99.99,,2013-06-13 21:52:00,
2013-06-13 17:00:00,83.0,-99.9,29.96,SSE,154,14.0,15.0,-999,-99.99,,,-99.99,,2013-06-13 22:00:00,
2013-06-13 17:22:00,83.0,-99.9,29.96,SSE,154,14.0,15.0,-999,-99.99,,,-99.99,,2013-06-13 22:22:00,
2013-06-13 17:33:00,83.0,-99.9,29.96,SSE,154,14.0,15.0,-999,-99.99,,,-99.99,,2013-06-13 22:33:00,
2013-06-13 17:43:00,83.0,-99.9,29.96,SSE,154,14.0,15.0,-999,-99.99,,,-99.99,,2013-06-13 22:43:00,
2013-06-13 17:52:00,83.0,-99.9,29.96,SSE,154,14.0,15.0,-999,-99.99,,,-99.99,,2013-06-13 22:52:00,
2013-06-13 18:00:00,83.0,-99.9,29.94,SSE,151,13.0,15.0,-999,-99.99,,,-99.99,,2013-06-13 23:00:00,
2013-06-13 18:32:00,83.0,-99.9,29.94,SSE,151,13.0,15.0,-999,-99.99,,,-99.99,,2013-06-13 23:32:00,
2013-06-13 18:43:00,83.0,-99.9,29.94,SSE,151,13.0,15.0,-999,-99.99,,,-99.99,,2013-06-13 23:43:00,
2013-06-13 18:52:00,83.0,-99.9,29.94,SSE,151,13.0,15.0,-999,-99.99,,,-99.99,,2013-06-13 23:52:00,
2013-06-13 19:00:00,83.0,-99.9,29.93,South,169,13.0,14.0,-999,-99.99,,,-99.99,,2013-06-14 00:00:00,
2013-06-13 19:34:00,83.0,-99.9,29.93,South,169,13.0,14.0,-999,-99.99,,,-99.99,,2013-06-14 00:34:00,
2013-06-13 19:43:00,83.0,-99.9,29.93,South,169,13.0,14.0,-999,-99.99,,,-99.99,,2013-06-14 00:43:00,
2013-06-13 19:53:00,83.0,-99.9,29.93,South,169,13.0,14.0,-999,-99.99,,,-99.99,,2013-06-14 00:53:00,
2013-06-13 20:00:00,83.0,-99.9,29.94,SSE,161,11.0,13.0,-999,-99.99,,,-99.99,,2013-06-14 01:00:00,
2013-06-13 20:33:00,83.0,-99.9,29.94,SSE,161,11.0,13.0,-999,-99.99,,,-99.99,,2013-06-14 01:33:00,
2013-06-13 20:43:00,83.0,-99.9,29.94,SSE,161,11.0,13.0,-999,-99.99,,,-99.99,,2013-06-14 01:43:00,
2013-06-13 20:53:00,83.0,-99.9,29.94,SSE,161,11.0,13.0,-999,-99.99,,,-99.99,,2013-06-14 01:53:00,
2013-06-13 21:00:00,83.0,-99.9,29.93,SSE,158,12.0,14.0,-999,-99.99,,,-99.99,,2013-06-14 02:00:00,
2013-06-13 21:33:00,83.0,-99.9,29.93,SSE,158,12.0,14.0,-999,-99.99,,,-99.99,,2013-06-14 02:33:00,
2013-06-13 21:43:00,83.0,-99.9,29.93,SSE,158,12.0,14.0,-999,-99.99,,,-99.99,,2013-06-14 02:43:00,
2013-06-13 21:53:00,83.0,-99.9,29.93,SSE,158,12.0,14.0,-999,-99.99,,,-99.99,,2013-06-14 02:53:00,
2013-06-13 22:00:00,83.0,-99.9,29.94,South,173,14.0,16.0,-999,-99.99,,,-99.99,,2013-06-14 03:00:00,
2013-06-13 22:34:00,83.0,-99.9,29.94,South,173,14.0,16.0,-999,-99.99,,,-99.99,,2013-06-14 03:34:00,
2013-06-13 22:43:00,83.0,-99.9,29.94,South,173,14.0,16.0,-999,-99.99,,,-99.99,,2013-06-14 03:43:00,
2013-06-13 22:53:00,83.0,-99.9,29.94,South,173,14.0,16.0,-999,-99.99,,,-99.99,,2013-06-14 03:53:00,
2013-06-13 23:00:00,82.0,-99.9,29.93,SSE,158,10.0,13.0,-999,-99.99,,,-99.99,,2013-06-14 04:00:00,
2013-06-13 23:33:00,82.0,-99.9,29.93,SSE,158,10.0,13.0,-999,-99.99,,,-99.99,,2013-06-14 04:33:00,
2013-06-13 23:43:00,82.0,-99.9,29.93,SSE,158,10.0,13.0,-999,-99.99,,,-99.99,,2013-06-14 04:43:00,
2013-06-13 23:53:00,82.0,-99.9,29.93,SSE,158,10.0,13.0,-999,-99.99,,,-99.99,,2013-06-14 04:53:00,